Flag for Australia Weather past 2 weeks in Broken Hill, New South Wales, Australia

Now
44 °F

Quite cool.


Feels Like: 40 °F
Forecast: 41 / 61 °F
Wind: 7 mph from North

Location: Yunta

Current Time: Jul 6, 2015 at 9:05:11 AM

Latest Report: Jul 6, 2015 at 7:30 AM


Visibility: N/A

Pressure: 30.06 "Hg

Humidity: 78%

Dew point: 38 °F

Location of Broken HillLocation

Historic Weather in Broken Hill — Graph

°F

Broken Hill temperature yesterday

Maximum temperature yesterday: 60 °F (at 3:00 PM)
Minimum temperature yesterday: 36 °F (at 7:30 AM)
Average temperature yesterday: 48 °F

Past Weeks' High & Low Weather Summary

 TemperatureHumidityPressure
High65 °F (Jun 23, 1:30 PM)93% (Jun 21, 7:30 AM)30.56 "Hg (Jun 21, 7:30 AM)
Low28 °F (Jul 1, 6:00 AM)35% (Jun 23, 3:00 PM)29.97 "Hg (Jun 23, 2:30 PM)
Average46 °F75%30.32 "Hg
* Reported Jun 21 7:30 AM — Jul 6 7:30 AM, Broken Hill, Weather by CustomWeather, © 2015

Note: Actual official high and low records may vary slightly from our data, if they occured in-between our weather recording intervals... More about our weather records

Advertising

Broken Hill weather history for previous 24 hours

 ConditionsComfort  
Time TempWeatherWind HumidityBarometerVisibility
7:30 AM
Mon, Jul 6
44 °FQuite cool.7 mph78%30.06 "HgN/A
6:00 AM44 °FQuite cool.5 mph74%30.06 "HgN/A
4:30 AM44 °FQuite cool.9 mph76%30.05 "HgN/A
3:00 AM44 °FQuite cool.9 mph77%30.06 "HgN/A
2:30 AM44 °FQuite cool.14 mph75%30.06 "HgN/A
1:30 AM45 °FCool.14 mph75%30.07 "HgN/A
12:00 AM45 °FQuite cool.10 mph77%30.09 "HgN/A
11:30 PM
Sun, Jul 5
44 °FQuite cool.9 mph79%30.10 "HgN/A
10:30 PM42 °FQuite cool.7 mph83%30.10 "HgN/A
9:00 PM45 °FCool.8 mph76%30.10 "HgN/A
8:30 PM47 °FCool.7 mph72%30.10 "HgN/A
7:30 PM47 °FCool.3 mph72%30.09 "HgN/A
6:00 PM51 °FCool.5 mph63%30.08 "HgN/A
5:30 PM53 °FCool.3 mph60%30.08 "HgN/A
4:30 PM58 °FRefreshingly cool.6 mph45%30.08 "HgN/A
3:00 PM60 °FRefreshingly cool.8 mph41%30.09 "HgN/A
2:30 PM60 °FRefreshingly cool.8 mph44%30.09 "HgN/A
1:30 PM59 °FRefreshingly cool.6 mph43%30.09 "HgN/A
12:00 PM58 °FRefreshingly cool.8 mph48%30.14 "HgN/A
11:30 AM57 °FRefreshingly cool.7 mph51%30.16 "HgN/A
10:30 AM54 °FCool.6 mph65%30.17 "HgN/A
9:00 AM47 °FCool.6 mph77%30.18 "HgN/A
Weather by CustomWeather, © 2015

See weather overviewHow to use our weather pages